CAPE
878 967 911 830 726 789 830 834 823 803 779 848 978 1044 1018 968 889 804 817 871 1179 1163 1056 998 1029 973 760 501 277 145 21 18 43 120 279 649 444 290 342 313 176 129 235
869 1034 1049 1047 1001 967 993 1027 1027 1025 1054 1068 1048 984 918 910 951 1015 1068 1255 1262 1263 1148 1049 1013 973 708 433 276 167 41 34 3 10 43 349 490 366 431 241 124 90 42
1005 1133 1130 1182 1206 1177 1224 1229 1224 1223 1267 1214 1182 1199 1203 1136 1178 1267 1042 1049 1200 1397 1510 1409 1267 990 732 441 312 213 71 31 14 5 0 63 417 436 365 153 63 40 44
848 1015 1170 1240 1206 1176 1169 1180 1214 1238 1252 1275 1286 1327 1262 1232 1178 1116 1034 923 1022 1358 1427 1587 1516 1186 711 407 251 168 114 60 35 15 0 165 492 509 409 168 63 2 0
543 668 818 891 1015 1126 1125 1119 1105 1075 1046 1048 1134 1251 1250 1250 1281 1137 989 905 945 1013 1222 1321 1248 1249 941 544 310 201 119 64 23 9 0 51 304 661 439 213 44 0 0
306 317 416 532 613 677 664 632 628 574 478 473 564 727 940 998 1084 1054 990 1065 1070 1078 1118 1111 1057 1046 1000 796 568 351 202 111 38 0 0 0 23 665 479 269 0 0 0
92 72 105 174 295 374 364 292 227 71 79 88 266 640 583 571 621 579 585 586 584 703 815 896 928 915 915 928 891 679 479 298 168 60 33 12 68 527 811 265 0 0 0
8 0 4 41 46 62 53 0 0 0 0 0 0 218 0 0 21 0 22 32 216 179 226 218 233 485 573 723 819 835 716 566 424 247 136 53 17 360 791 274 0 0 0
0 0 0 0 0 0 0 0 0 0 0 0 0 0 0 0 0 0 0 0 0 0 0 0 0 42 0 206 554 695 611 696 673 543 428 290 128 184 699 584 21 0 0
0 0 0 0 0 0 0 0 0 0 0 0 0 0 0 0 0 0 0 0 0 0 0 0 0 0 0 0 0 2 0 92 361 405 397 287 243 262 694 705 205 8 0
0 0 0 0 0 0 0 0 0 0 0 0 0 0 0 0 0 0 0 0 0 0 0 0 0 0 0 0 0 0 0 0 0 0 49 109 90 333 212 486 595 104 0
0 0 0 0 0 0 0 0 0 0 0 0 0 0 0 0 0 0 0 0 0 0 0 0 0 0 0 0 0 0 0 0 0 0 0 0 0 25 352 770 568 326 109
0 0 0 0 0 0 0 0 0 0 0 0 0 0 0 0 0 0 0 0 0 0 0 0 0 0 0 0 0 0 0 0 0 0 0 0 0 0 0 471 595 448 195
0 0 0 0 0 0 0 0 0 0 0 0 0 0 0 0 0 0 0 0 0 0 0 0 0 0 0 0 0 0 0 0 0 0 0 0 0 0 0 0 7 334 230
0 0 0 0 0 0 0 0 0 0 0 0 0 0 0 0 0 0 0 0 0 0 0 0 0 0 0 0 0 0 0 0 0 0 0 0 0 0 0 0 5 4 188
0 0 0 0 0 0 0 0 0 0 0 0 0 0 0 0 0 0 0 0 0 0 0 0 0 0 0 0 0 0 0 0 0 0 0 0 0 0 0 0 0 0 0
0 0 0 0 0 0 0 0 0 0 0 0 0 0 0 0 0 0 0 0 0 0 0 0 0 0 0 0 0 0 0 0 0 0 0 0 0 0 0 0 0 0 0
0 0 0 0 0 0 0 0 0 0 0 0 0 0 0 0 0 0 0 0 0 0 0 0 0 0 0 0 0 0 0 0 0 0 0 0 0 0 0 0 0 0 0
0 0 0 0 0 0 0 0 0 0 0 0 0 0 0 0 0 0 0 0 0 0 0 0 0 0 0 0 0 0 0 0 0 0 0 0 0 0 0 0 0 0 0
0 0 0 0 0 0 0 0 0 0 0 0 0 0 0 0 0 0 0 0 0 0 0 0 0 0 0 0 0 0 0 0 0 0 0 0 0 0 0 0 0 0 0
0 0 0 0 0 0 0 0 0 0 0 0 0 0 0 0 0 0 0 0 0 0 0 0 0 0 0 0 0 0 0 0 0 0 0 0 0 0 0 0 0 0 0
0 0 0 0 0 0 0 0 0 0 0 0 0 0 0 0 0 0 0 0 0 0 0 0 0 0 0 0 0 0 0 0 0 0 0 0 0 0 0 0 0 0 0
0 0 0 0 0 0 0 0 0 0 0 0 0 0 0 0 0 0 0 0 0 0 0 0 0 0 0 0 0 0 0 0 0 0 0 0 0 0 0 0 0 0 0
0 0 0 0 0 0 0 0 0 0 0 0 0 0 0 0 0 0 0 0 0 0 0 0 0 0 0 0 0 0 0 0 0 0 0 0 0 0 0 0 0 0 0
0 0 0 0 0 0 0 0 0 0 0 0 0 0 0 0 0 0 0 0 0 0 0 0 0 0 0 0 0 0 0 1 1 2 0 0 0 0 0 0 0 0 0
0 0 0 0 0 0 0 0 0 0 0 0 0 0 0 0 0 0 0 0 0 0 0 0 0 0 0 0 0 0 0 0 1 1 1 1 2 0 0 0 0 0 0
CIN
-194 -182 -209 -206 -212 -176 -152 -154 -152 -148 -152 -136 -107 -74 -76 -77 -90 -93 -68 -69 -32 -23 -23 -30 -20 -21 -42 -89 -150 -228 -360 -377 -341 -223 -108 -13 -40 -95 -72 -71 -139 -186 -92
-206 -143 -143 -147 -155 -136 -122 -108 -105 -108 -97 -93 -89 -89 -104 -97 -79 -59 -30 -11 -8 -7 -18 -27 -30 -28 -59 -105 -154 -193 -312 -343 -395 -387 -282 -88 -40 -59 -40 -103 -189 -242 -295
-149 -101 -118 -119 -99 -89 -71 -65 -60 -64 -51 -61 -41 -34 -33 -41 -27 -12 -33 -30 -3 -0 -0 -0 -3 -24 -51 -100 -139 -190 -261 -321 -367 -386 -0 -254 -62 -28 -45 -161 -237 -282 -271
-177 -142 -116 -93 -74 -66 -61 -59 -47 -38 -33 -21 -18 -13 -21 -15 -16 -16 -28 -43 -23 -1 -2 -0 -0 -2 -44 -114 -160 -198 -215 -263 -304 -333 -0 -174 -69 -46 -39 -140 -218 -106 -0
-252 -218 -169 -149 -112 -85 -77 -63 -59 -62 -58 -49 -31 -13 -13 -8 -2 -6 -16 -23 -12 -8 -1 -0 -2 -1 -9 -71 -126 -174 -212 -228 -258 -244 -0 -198 -83 -24 -41 -104 -194 -0 -0
-345 -331 -280 -231 -201 -171 -156 -150 -142 -152 -176 -169 -128 -83 -25 -13 -8 -12 -11 -2 -1 -2 -0 -0 -2 -1 -1 -14 -54 -103 -143 -179 -220 -0 -0 -0 -194 -32 -39 -76 -0 -0 -0
-442 -449 -406 -339 -273 -240 -240 -258 -281 -292 -284 -255 -252 -93 -96 -93 -82 -90 -74 -64 -60 -30 -15 -7 -2 -1 -0 -0 -0 -12 -58 -102 -156 -208 -242 -265 -177 -29 -18 -71 -0 -0 -0
-539 -0 -257 -430 -418 -420 -436 -164 -0 -0 -0 -0 -0 -252 -0 -0 -197 -0 -246 -167 -213 -232 -187 -159 -160 -53 -27 -6 -1 -0 -1 -25 -76 -123 -175 -229 -243 -49 -5 -61 -0 -0 -0
-0 -0 -0 -0 -0 -0 -0 -0 -0 -0 -0 -0 -0 -0 -0 -0 -0 -0 -0 -0 -89 -0 -0 -0 -0 -40 -0 -161 -14 -1 -2 -6 -21 -49 -60 -100 -141 -92 -2 -29 -160 -0 -0
-0 -0 -0 -0 -0 -0 -0 -0 -0 -0 -0 -0 -0 -0 -0 -0 -0 -0 -0 -0 -0 -0 -0 -0 -0 -0 -0 -0 -0 -324 -0 -223 -62 -55 -61 -80 -66 -37 -2 -1 -55 -186 -0
-0 -0 -0 -0 -0 -0 -0 -0 -0 -0 -0 -0 -0 -0 -0 -0 -0 -0 -0 -0 -0 -0 -0 -0 -0 -0 -0 -0 -0 -0 -0 -0 -0 -0 -114 -45 -139 -15 -35 -5 -13 -84 -0
-0 -0 -0 -0 -0 -0 -0 -0 -0 -0 -0 -0 -0 -0 -0 -0 -0 -0 -0 -0 -0 -0 -0 -0 -0 -0 -0 -0 -0 -0 -0 -0 -0 -0 -0 -0 -0 -4 -40 -0 -2 -23 -78
-0 -0 -0 -0 -0 -0 -0 -0 -0 -0 -0 -0 -0 -0 -0 -0 -0 -0 -0 -0 -0 -0 -0 -0 -0 -0 -0 -0 -0 -0 -0 -0 -0 -0 -0 -0 -0 -0 -0 -13 -0 -2 -22
-0 -0 -0 -0 -0 -0 -0 -0 -0 -0 -0 -0 -0 -0 -0 -0 -0 -0 -0 -0 -0 -0 -0 -0 -0 -0 -0 -0 -0 -0 -0 -0 -0 -0 -0 -0 -0 -0 -0 -0 -3 -0 -1
-0 -0 -0 -0 -0 -0 -0 -0 -0 -0 -0 -0 -0 -0 -0 -0 -0 -0 -0 -0 -0 -0 -0 -0 -0 -0 -0 -0 -0 -0 -0 -0 -0 -0 -0 -0 -0 -0 -0 -0 -0 -0 -69
-0 -0 -0 -0 -0 -0 -0 -0 -0 -0 -0 -0 -0 -0 -0 -0 -0 -0 -0 -0 -0 -0 -0 -0 -0 -0 -0 -0 -0 -0 -0 -0 -0 -0 -0 -0 -0 -0 -0 -0 -0 -0 -0
-0 -0 -0 -0 -0 -0 -0 -0 -0 -0 -0 -0 -0 -0 -0 -0 -0 -0 -0 -0 -0 -0 -0 -0 -0 -0 -0 -0 -0 -0 -0 -0 -0 -0 -0 -0 -0 -0 -0 -0 -0 -0 -0
-0 -0 -0 -0 -0 -0 -0 -0 -0 -0 -0 -0 -0 -0 -0 -0 -0 -0 -0 -0 -0 -0 -0 -0 -0 -0 -0 -0 -0 -0 -0 -0 -0 -0 -0 -0 -0 -0 -0 -0 -0 -0 -0
-0 -0 -0 -0 -0 -0 -0 -0 -0 -0 -0 -0 -0 -0 -0 -0 -0 -0 -0 -0 -0 -0 -0 -0 -0 -0 -0 -0 -0 -0 -0 -0 -0 -0 -0 -0 -0 -0 -0 -0 -0 -0 -0
-0 -0 -0 -0 -0 -0 -0 -0 -0 -0 -0 -0 -0 -0 -0 -0 -0 -0 -0 -0 -0 -0 -0 -0 -0 -0 -0 -0 -0 -0 -0 -0 -0 -0 -0 -0 -0 -0 -0 -0 -0 -0 -0
-0 -0 -0 -0 -0 -0 -0 -0 -0 -0 -0 -0 -0 -0 -0 -0 -0 -0 -0 -0 -0 -0 -0 -0 -0 -0 -0 -0 -0 -0 -0 -0 -0 -0 -0 -0 -0 -0 -0 -0 -0 -0 -0
-0 -0 -0 -0 -0 -0 -0 -0 -0 -0 -0 -0 -0 -0 -0 -0 -0 -0 -0 -0 -0 -0 -0 -0 -0 -0 -0 -0 -0 -0 -0 -0 -0 -0 -0 -0 -0 -0 -0 -0 -0 -0 -0
-0 -0 -0 -0 -0 -0 -0 -0 -0 -0 -0 -0 -0 -0 -0 -0 -0 -0 -0 -0 -0 -0 -0 -0 -0 -0 -0 -0 -1 -0 -0 -0 -0 -0 -0 -0 -0 -0 -0 -0 -0 -0 -0
-0 -0 -0 -0 -0 -0 -0 -0 -0 -0 -0 -0 -0 -0 -0 -0 -0 -0 -0 -0 -0 -0 -0 -0 -0 -0 -0 -0 -0 -0 -0 -0 -0 -0 -0 -0 -0 -0 -0 -0 -0 -0 -0
-0 -0 -0 -0 -0 -0 -0 -0 -0 -0 -0 -0 -0 -0 -0 -0 -0 -0 -0 -0 -0 -0 -0 -0 -0 -0 -0 -2 -0 -0 -0 -1 -1 -0 -0 -0 -0 -0 -0 -0 -0 -0 -0
-0 -0 -0 -0 -0 -0 -0 -0 -0 -0 -0 -0 -0 -0 -0 -0 -0 -0 -0 -0 -0 -0 -0 -0 -0 -0 -0 -0 -0 -0 -0 -0 -0 -0 -0 -0 -0 -0 -0 -0 -0 -0 -0
Wind_Speed
15 16 16 17 18 17 17 17 18 19 19 20 20 21 21 22 22 22 22 22 22 22 22 22 22 22 23 23 24 24 24 25 25 25 25 23 23 24 24 24 24 25 26
15 15 16 17 18 18 17 17 17 17 18 18 19 19 20 20 21 21 21 21 22 22 22 22 22 22 23 23 23 23 24 24 24 24 25 22 21 22 22 23 23 24 25
13 14 15 16 17 18 18 17 17 17 17 18 18 19 19 20 20 21 21 21 21 22 21 21 21 22 23 23 23 23 23 23 23 24 25 22 18 20 21 22 23 24 24
14 14 15 16 17 17 17 16 17 17 17 18 18 19 19 20 20 20 21 21 22 22 22 22 21 22 23 24 24 24 24 25 24 25 25 24 16 17 18 20 22 23 23
13 13 15 16 17 17 17 17 17 17 17 18 18 19 19 20 20 20 21 21 21 21 22 22 23 22 23 23 23 23 23 24 25 25 24 22 17 15 16 18 20 22 21
11 13 15 16 16 17 17 17 17 18 18 18 19 19 20 20 20 21 22 22 22 23 23 23 23 23 23 23 23 22 23 23 24 23 23 23 20 12 12 15 18 19 19
12 14 14 15 16 16 17 17 17 18 19 19 19 20 20 21 21 22 22 23 24 24 25 26 26 26 26 26 24 24 23 21 22 22 22 22 22 10 9 12 15 16 17
13 14 15 15 16 16 17 18 18 19 19 20 20 20 21 22 22 23 23 24 24 26 25 26 27 27 28 27 26 26 24 21 22 18 20 19 16 9 7 9 12 13 14
11 13 14 15 16 17 17 18 19 19 20 20 20 21 22 22 23 23 24 25 24 26 27 27 28 28 29 29 28 28 29 25 20 19 19 17 18 13 6 6 8 9 11
11 11 12 13 14 16 16 17 19 20 20 20 21 22 23 23 24 24 25 25 26 26 27 28 29 29 30 30 30 30 31 29 27 26 24 22 19 15 9 9 7 5 7
8 10 12 12 13 14 15 16 18 20 20 21 22 23 23 23 24 24 25 26 27 27 28 29 30 30 30 30 31 31 30 29 30 28 27 27 29 26 20 8 6 6 3
6 8 11 11 13 13 14 15 17 18 20 21 21 23 23 23 24 25 25 27 28 29 29 30 30 31 31 31 31 32 31 31 30 30 29 33 33 32 31 20 11 9 7
6 7 9 10 11 12 13 14 15 17 19 21 22 23 24 24 25 26 26 28 29 30 30 31 31 32 32 32 33 33 33 32 32 31 32 35 36 36 35 33 19 14 13
4 5 7 8 9 11 11 13 14 16 18 21 23 24 24 25 26 26 27 28 29 30 31 31 32 33 33 33 33 33 33 33 33 32 33 35 36 36 36 34 32 25 17
3 4 6 7 8 9 10 11 13 15 18 20 22 24 25 25 26 26 28 29 30 31 32 33 34 34 34 34 34 34 34 34 35 34 33 34 35 36 36 36 36 35 38
2 4 5 5 7 7 9 10 12 15 17 20 22 24 25 25 25 27 28 30 31 32 33 34 35 35 35 35 35 35 35 34 35 34 33 32 33 33 31 34 36 37 36
3 3 4 4 5 6 8 9 12 14 17 20 21 23 25 25 26 27 28 30 32 32 33 34 36 36 36 36 37 35 34 35 33 32 31 33 32 33 33 36 37 38 38
3 4 4 5 5 5 7 9 11 14 17 19 21 23 24 25 26 27 29 31 32 32 34 36 38 38 38 38 38 35 33 32 31 29 31 32 33 32 34 36 38 38 38
5 5 6 6 5 5 7 9 11 13 16 18 20 22 24 25 26 28 29 31 31 33 35 36 37 38 39 39 38 35 35 31 30 28 33 32 32 34 34 37 40 40 40
5 7 7 7 5 5 6 8 11 14 16 18 20 21 23 24 26 28 30 31 31 33 35 36 38 38 38 40 38 35 33 30 25 30 34 32 32 35 36 39 38 40 42
7 8 7 7 6 4 5 8 11 14 16 18 20 20 22 24 26 28 30 31 31 34 36 37 37 38 39 41 38 38 31 32 24 34 31 32 35 36 38 38 39 40 41
8 7 7 8 6 6 7 9 11 12 15 17 19 20 22 24 26 28 30 30 32 33 35 36 36 36 36 38 40 36 40 33 30 38 32 32 37 37 39 38 40 40 41
8 7 7 6 6 7 7 8 10 12 15 18 20 22 22 24 26 28 29 30 32 32 34 34 35 36 37 35 36 36 38 39 46 29 34 34 36 41 39 41 39 41 41
8 6 6 6 7 7 8 9 10 13 15 17 18 20 22 24 25 27 29 31 31 31 32 33 34 34 34 35 34 34 32 34 37 43 35 44 41 41 41 39 42 40 41
7 6 5 6 7 9 9 9 10 13 14 15 17 20 21 24 24 26 29 30 31 32 30 32 33 33 32 33 34 35 34 34 34 38 52 49 46 43 39 44 39 39 40
8 6 6 6 8 8 8 9 10 11 13 15 17 20 21 23 24 26 28 30 31 30 31 32 32 32 33 34 34 33 34 36 39 39 46 51 52 46 46 38 40 39 41
Wind_Direction
49 52 50 56 53 47 38 33 33 33 33 31 32 30 28 30 29 28 27 27 21 18 14 13 12 12 12 11 11 9 10 11 11 11 11 15 16 14 15 16 13 8 4
57 48 52 56 57 60 44 38 33 29 23 22 19 21 21 22 21 21 20 16 19 20 24 25 23 20 17 15 15 13 8 9 9 13 11 15 17 15 18 16 14 10 5
48 48 49 54 57 58 53 44 31 23 19 16 17 14 12 12 12 13 14 13 10 10 11 14 15 14 12 12 9 8 8 8 8 7 3 13 20 17 16 14 13 12 9
57 50 49 53 54 51 46 36 29 22 16 13 10 7 6 5 7 7 6 5 2 359 1 2 9 7 3 0 360 0 359 356 358 356 359 1 21 19 18 15 11 9 11
49 47 51 51 50 47 41 36 28 21 15 9 4 4 4 4 3 3 1 0 1 2 360 358 355 358 358 358 358 359 358 356 352 353 356 2 10 13 16 12 8 9 10
42 46 51 49 49 46 42 37 32 25 17 12 10 9 7 3 1 357 356 356 353 351 351 352 351 352 353 353 355 357 357 355 352 355 353 356 1 17 19 13 9 11 14
59 57 55 53 49 45 41 35 30 24 19 12 8 10 11 4 2 359 355 352 349 346 343 340 339 339 340 343 347 350 352 357 354 351 351 352 356 10 17 12 8 13 20
67 59 54 51 48 45 43 39 33 23 14 8 9 15 8 7 3 357 0 358 359 349 348 345 341 340 336 340 342 342 347 352 348 354 352 355 1 355 355 357 1 7 17
55 57 47 44 45 42 39 40 33 26 17 11 10 9 7 3 359 355 353 353 357 353 350 349 344 343 337 340 340 338 336 342 347 346 347 350 350 351 331 349 353 2 7
48 42 37 42 39 38 39 33 27 21 18 15 13 11 9 5 3 0 359 0 358 355 350 347 345 343 342 341 339 340 338 338 339 339 341 344 346 349 332 314 321 341 357
41 31 24 38 39 39 37 34 29 24 21 19 18 15 12 9 4 1 0 359 356 352 349 347 345 345 343 342 341 339 339 341 338 337 337 335 332 329 331 237 255 279 299
54 32 22 34 37 45 35 35 32 27 20 14 11 9 8 6 3 1 360 355 352 350 348 347 346 345 343 342 341 341 342 339 336 332 332 327 324 322 320 315 257 255 263
53 33 20 33 36 41 35 34 31 25 18 14 11 8 7 5 1 358 356 351 350 347 347 346 346 345 342 341 338 337 336 336 335 332 328 321 320 318 319 313 300 274 265
49 32 20 32 40 37 38 29 30 23 17 12 8 6 3 2 359 358 356 354 353 351 348 348 347 344 342 341 339 338 337 335 334 332 329 325 318 314 311 314 311 301 253
3 15 8 25 33 33 27 27 25 22 16 12 8 5 4 3 2 2 359 357 354 351 348 345 343 342 340 339 339 337 335 334 332 331 330 328 322 315 310 309 308 304 297
334 344 350 6 17 28 20 21 20 19 14 9 7 6 5 6 5 3 360 356 353 350 347 344 341 339 338 338 336 336 334 333 332 331 330 329 326 324 321 312 308 305 303
298 322 333 346 3 15 14 18 15 12 9 7 8 7 5 4 4 2 1 357 352 350 347 344 341 339 336 336 334 335 335 333 333 333 333 329 325 321 318 312 307 306 304
279 290 311 323 342 1 5 11 11 8 5 5 5 5 3 4 3 1 359 356 354 351 347 343 340 336 335 335 334 336 338 337 336 336 334 331 325 321 317 314 309 305 304
271 281 295 307 320 346 357 1 4 3 360 2 2 2 3 4 2 1 358 355 353 350 347 344 341 339 337 336 335 336 335 334 334 334 331 329 326 323 319 315 309 305 302
270 283 292 300 311 332 347 353 357 355 356 360 0 2 3 2 2 0 357 354 353 349 346 344 341 341 340 336 335 335 334 334 335 333 329 327 326 324 321 316 312 307 303
272 279 283 291 304 310 329 333 339 342 348 354 357 0 0 1 2 359 356 354 353 349 347 345 343 342 341 341 336 333 336 334 335 331 329 326 324 323 320 317 313 309 306
259 269 278 285 289 300 313 325 333 342 348 354 356 358 359 1 358 357 354 352 351 350 349 348 347 344 344 344 337 334 328 331 329 326 330 329 325 323 320 316 313 311 307
248 250 259 276 287 300 313 328 338 344 345 343 347 350 356 358 358 356 354 353 351 352 350 350 349 346 341 344 346 341 330 325 323 324 325 326 325 322 319 315 312 308 306
238 234 244 269 291 300 311 314 320 326 332 340 346 350 352 355 357 356 354 353 352 352 351 351 349 347 344 343 343 343 339 332 327 318 319 316 320 318 317 317 312 309 307
224 225 240 271 290 301 311 318 323 330 338 343 347 348 351 352 355 355 355 354 352 351 351 350 349 347 345 343 342 340 337 334 329 322 309 311 312 316 316 314 314 311 309
233 235 253 269 290 301 310 320 327 331 335 340 341 344 347 350 352 354 354 353 352 352 350 349 348 348 346 345 344 342 337 332 327 324 317 313 310 311 313 315 312 313 310